| time (UTC) | temp C | wind direction | speed KPH | gust KPH | rain 1hr cm | rain 24hr cm | rain mn cm | humidity % | barometer mb |
| 20260504050024 | 7 | 146 | 0.0 | 0.0 | 0.00 | 0.00 | 0.00 | 82 | 1018.4 |
| 20260504044508 | 7 | 146 | 0.0 | 0.0 | 0.00 | 0.00 | 0.00 | 80 | 1018.2 |
| 20260504043012 | 8 | 146 | 0.0 | 1.6 | 0.00 | 0.00 | 0.00 | 79 | 1018.4 |
| 20260504041516 | 8 | 146 | 0.0 | 0.0 | 0.00 | 0.00 | 0.00 | 78 | 1018.6 |
| 20260504040020 | 8 | 146 | 0.0 | 0.0 | 0.00 | 0.00 | 0.00 | 77 | 1018.7 |
| 20260504034526 | 9 | 146 | 0.0 | 0.0 | 0.00 | 0.00 | 0.00 | 76 | 1018.6 |
| 20260504033029 | 10 | 146 | 0.0 | 1.6 | 0.00 | 0.00 | 0.00 | 76 | 1018.5 |
| 20260504031514 | 10 | 146 | 0.0 | 1.6 | 0.00 | 0.00 | 0.00 | 71 | 1018.6 |
| 20260504030015 | 10 | 151 | 0.0 | 1.6 | 0.00 | 0.00 | 0.00 | 72 | 1018.2 |
| 20260504024520 | 10 | 166 | 0.0 | 0.0 | 0.00 | 0.00 | 0.00 | 72 | 1018.4 |
| 20260504023026 | 10 | 165 | 0.0 | 0.0 | 0.00 | 0.00 | 0.00 | 71 | 1018.3 |
| 20260504021528 | 11 | 165 | 0.0 | 0.0 | 0.00 | 0.00 | 0.00 | 70 | 1018.1 |
| 20260504020011 | 11 | 165 | 0.0 | 1.6 | 0.00 | 0.00 | 0.00 | 67 | 1018.0 |
| 20260504014515 | 11 | 222 | 0.0 | 1.6 | 0.00 | 0.00 | 0.00 | 68 | 1017.7 |
| 20260504013029 | 12 | 222 | 0.0 | 1.6 | 0.00 | 0.00 | 0.00 | 66 | 1017.6 |
| 20260504011528 | 12 | 222 | 0.0 | 0.0 | 0.00 | 0.00 | 0.00 | 63 | 1017.6 |
| 20260504010027 | 13 | 183 | 0.0 | 0.0 | 0.00 | 0.00 | 0.00 | 60 | 1017.5 |
| 20260504004514 | 14 | 183 | 0.0 | 0.0 | 0.00 | 0.00 | 0.00 | 55 | 1017.4 |
| 20260504003023 | 15 | 183 | 0.0 | 0.0 | 0.00 | 0.00 | 0.00 | 53 | 1017.3 |
| 20260504001524 | 16 | 183 | 0.0 | 1.6 | 0.00 | 0.00 | 0.00 | 49 | 1017.2 |
| 20260504000049 | 17 | 152 | 0.0 | 4.8 | 0.00 | 0.00 | 0.00 | 43 | 1017.1 |
| 20260503234528 | 19 | 162 | 0.0 | 4.8 | 0.00 | 0.00 | 0.00 | 39 | 1017.1 |
| 20260503233013 | 20 | 172 | 1.6 | 8.0 | 0.00 | 0.00 | 0.00 | 39 | 1017.0 |
| 20260503231519 | 20 | 257 | 4.8 | 14.5 | 0.00 | 0.00 | 0.00 | 37 | 1017.1 |
| 20260503230022 | 20 | 189 | 1.6 | 11.3 | 0.00 | 0.00 | 0.00 | 38 | 1017.2 |
| 20260503224526 | 20 | 238 | 4.8 | 12.9 | 0.00 | 0.00 | 0.00 | 37 | 1017.1 |
| 20260503223036 | 20 | 241 | 6.4 | 14.5 | 0.00 | 0.00 | 0.00 | 37 | 1017.2 |
| 20260503221537 | 21 | 198 | 6.4 | 12.9 | 0.00 | 0.00 | 0.00 | 37 | 1017.2 |
| 20260503220022 | 20 | 238 | 4.8 | 14.5 | 0.00 | 0.00 | 0.00 | 37 | 1017.3 |
| 20260503214527 | 20 | 271 | 8.0 | 16.1 | 0.00 | 0.00 | 0.00 | 37 | 1017.4 |
| 20260503213009 | 20 | 269 | 6.4 | 16.1 | 0.00 | 0.00 | 0.00 | 36 | 1017.5 |
| 20260503211518 | 21 | 249 | 6.4 | 12.9 | 0.00 | 0.00 | 0.00 | 37 | 1017.8 |
| 20260503210016 | 20 | 222 | 6.4 | 19.3 | 0.00 | 0.00 | 0.00 | 38 | 1017.9 |
| 20260503204522 | 20 | 297 | 4.8 | 14.5 | 0.00 | 0.00 | 0.00 | 38 | 1018.1 |
| 20260503203008 | 20 | 154 | 6.4 | 14.5 | 0.00 | 0.00 | 0.00 | 38 | 1018.2 |
| 20260503201507 | 20 | 295 | 9.7 | 24.1 | 0.00 | 0.00 | 0.00 | 38 | 1018.5 |
| 20260503200012 | 20 | 315 | 8.0 | 17.7 | 0.00 | 0.00 | 0.00 | 38 | 1018.8 |
| 20260503194518 | 20 | 224 | 6.4 | 16.1 | 0.00 | 0.00 | 0.00 | 37 | 1019.2 |
| 20260503193022 | 19 | 221 | 6.4 | 17.7 | 0.00 | 0.00 | 0.00 | 40 | 1019.4 |
| 20260503191504 | 19 | 210 | 4.8 | 12.9 | 0.00 | 0.00 | 0.00 | 37 | 1019.5 |
| 20260503190009 | 20 | 233 | 6.4 | 12.9 | 0.00 | 0.00 | 0.00 | 37 | 1019.6 |
| 20260503184514 | 18 | 149 | 4.8 | 14.5 | 0.00 | 0.00 | 0.00 | 38 | 1019.8 |
| 20260503183027 | 18 | 223 | 3.2 | 22.5 | 0.00 | 0.00 | 0.00 | 37 | 1019.9 |
| 20260503181528 | 18 | 245 | 4.8 | 14.5 | 0.00 | 0.00 | 0.00 | 36 | 1020.0 |
| 20260503180011 | 18 | 281 | 6.4 | 16.1 | 0.00 | 0.00 | 0.00 | 36 | 1020.1 |
| 20260503174516 | 18 | 214 | 3.2 | 12.9 | 0.00 | 0.00 | 0.00 | 39 | 1020.2 |
| 20260503173035 | 18 | 233 | 0.0 | 11.3 | 0.00 | 0.00 | 0.00 | 44 | 1020.3 |
| 20260503171521 | 17 | 326 | 4.8 | 11.3 | 0.00 | 0.00 | 0.00 | 41 | 1020.6 |
| 20260503081518 | 3 | 46 | 0.0 | 0.0 | 0.00 | 0.03 | 0.00 | 94 | 1018.7 |
| 20260503071525 | 4 | 46 | 0.0 | 0.0 | 0.00 | 0.03 | 0.00 | 94 | 1018.1 |